Weather History for KGAO - November, 2012

Change the Weather History Date:

Monday, November 5, 2012

  Actual Average (KAXO) Record (KAXO)
Temperature  
Mean Temperature 65 °F -  
Max Temperature 77 °F 68 °F 80 °F (2014)
Min Temperature 53 °F 65 °F 60 °F (1998)
Growing Degree Days 15 (Base 50)    
Moisture  
Dew Point 63 °F    
Average Humidity 90    
Maximum Humidity 100    
Minimum Humidity 61    
Precipitation  
Precipitation 0.00 in - - ()
Sea Level Pressure  
Sea Level Pressure 30.00 in    
Wind  
Wind Speed 5 mph (SW)    
Max Wind Speed 12 mph    
Max Gust Speed 17 mph    
Visibility 9 miles    
Events Rain    
Averages and records for this station are not official NWS values.
T = Trace of Precipitation, MM = Missing Value Source: NWS Daily Summary

Daily Weather History Graph

Daily Weather History Graph

Search for Another Location

Airport or City:

Trip Planner

Search our weather history database for the weather conditions in past years. The results will help you decide how hot, cold, wet, or windy it might be!

Date:

Astronomy

Nov. 05, 2012 Rise Set
Actual Time 6:17 AM CST 5:11 PM CST
Civil Twilight 5:52 AM CST 5:36 PM CST
Nautical Twilight 5:24 AM CST 6:04 PM CST
Astronomical Twilight 4:56 AM CST 6:32 PM CST
Moon 10:48 PM CST (11/5) 11:36 AM CST (11/5)
Length of Visible Light 11h 43m
Length of Day
10h 53m
Waning Gibbous, 62% of the Moon is Illuminated
Nov 5
Waning Gibbous
Nov 6
Last Quarter
Nov 13
New
Nov 20
First Quarter
Nov 28
Full

Hourly Weather History & Observations

Time (CST) Temp. Dew Point Humidity Pressure Visibility Wind Dir Wind Speed Gust Speed Precip Events Conditions
12:15 AM 55.4 °F 55.4 °F 100% 30.06 in 4.0 mi NNW 5.8 mph - N/A   Clear
12:35 AM 55.4 °F 55.4 °F 100% 30.06 in 4.0 mi NNW 5.8 mph - N/A   Clear
12:55 AM 55.4 °F 55.4 °F 100% 30.05 in 5.0 mi NNW 5.8 mph - N/A   Clear
1:15 AM 55.4 °F 55.4 °F 100% 30.05 in 5.0 mi NNW 3.5 mph - N/A   Clear
1:35 AM 55.4 °F 55.4 °F 100% 30.05 in 5.0 mi NNW 3.5 mph - N/A   Clear
1:55 AM 53.6 °F 53.6 °F 100% 30.05 in 3.0 mi NNW 3.5 mph - N/A   Clear
2:15 AM 53.6 °F 53.6 °F 100% 30.04 in 1.8 mi Calm Calm - N/A   Mist
2:35 AM 55.4 °F 55.4 °F 100% 30.04 in 10.0 mi North 5.8 mph - N/A   Clear
2:55 AM 55.4 °F 55.4 °F 100% 30.04 in 10.0 mi Calm Calm - N/A   Clear
3:15 AM 53.6 °F 53.6 °F 100% 30.04 in 5.0 mi NNW 3.5 mph - N/A   Clear
3:35 AM 53.6 °F 53.6 °F 100% 30.05 in 5.0 mi NNW 5.8 mph - N/A   Scattered Clouds
3:55 AM 53.6 °F 53.6 °F 100% 30.05 in 7.0 mi North 9.2 mph - N/A   Mostly Cloudy
4:15 AM 55.4 °F 55.4 °F 100% 30.05 in 10.0 mi North 8.1 mph - N/A   Overcast
4:35 AM 55.4 °F 55.4 °F 100% 30.05 in 10.0 mi North 6.9 mph - N/A   Overcast
4:55 AM 55.4 °F 55.4 °F 100% 30.05 in 7.0 mi North 4.6 mph - N/A   Scattered Clouds
5:35 AM 57.2 °F 57.2 °F 100% 30.05 in 7.0 mi NNE 4.6 mph - N/A   Overcast
5:55 AM 57.2 °F 57.2 °F 100% 30.05 in 7.0 mi NNE 3.5 mph - N/A   Mostly Cloudy
6:15 AM 57.2 °F 57.2 °F 100% 30.05 in 7.0 mi NNE 5.8 mph - N/A   Scattered Clouds
6:35 AM 57.2 °F 57.2 °F 100% 30.06 in 7.0 mi North 5.8 mph - N/A   Mostly Cloudy
6:55 AM 59.0 °F 59.0 °F 100% 30.06 in 10.0 mi NNE 5.8 mph - N/A   Overcast
7:15 AM 59.0 °F 59.0 °F 100% 30.06 in 10.0 mi NNE 8.1 mph - N/A   Overcast
7:35 AM 62.6 °F 62.6 °F 100% 30.07 in 10.0 mi NNE 6.9 mph - N/A   Scattered Clouds
7:55 AM 66.2 °F 66.2 °F 100% 30.07 in 10.0 mi NE 8.1 mph - N/A   Mostly Cloudy
8:15 AM 66.2 °F 66.2 °F 100% 30.07 in 10.0 mi NE 6.9 mph - N/A   Mostly Cloudy
8:35 AM 68.0 °F 66.2 °F 94% 30.07 in 10.0 mi NE 6.9 mph - N/A   Scattered Clouds
8:55 AM 68.0 °F 68.0 °F 100% 30.07 in 10.0 mi East 8.1 mph - N/A   Scattered Clouds
9:15 AM 69.8 °F 68.0 °F 94% 30.07 in 10.0 mi East 5.8 mph - N/A   Scattered Clouds
9:35 AM 69.8 °F 68.0 °F 94% 30.07 in 10.0 mi East 6.9 mph - N/A   Scattered Clouds
9:55 AM 71.6 °F 68.0 °F 88% 30.07 in 10.0 mi East 5.8 mph - N/A   Clear
10:15 AM 71.6 °F 68.0 °F 88% 30.06 in 10.0 mi East 4.6 mph - N/A   Clear
10:35 AM 71.6 °F 66.2 °F 83% 30.05 in 10.0 mi ENE 3.5 mph - N/A   Clear
10:55 AM 73.4 °F 64.4 °F 73% 30.05 in 10.0 mi Calm Calm - N/A   Clear
11:15 AM 73.4 °F 64.4 °F 73% 30.04 in 10.0 mi Calm Calm - N/A   Scattered Clouds
11:35 AM 75.2 °F 66.2 °F 73% 30.03 in 10.0 mi ESE 4.6 mph - N/A   Scattered Clouds
11:55 AM 73.4 °F 64.4 °F 73% 30.02 in 10.0 mi East 5.8 mph - N/A   Scattered Clouds
12:15 PM 73.4 °F 64.4 °F 73% 30.01 in 10.0 mi Calm Calm - N/A   Scattered Clouds
12:35 PM 75.2 °F 64.4 °F 69% 30.00 in 10.0 mi South 3.5 mph - N/A   Mostly Cloudy
12:55 PM 77.0 °F 64.4 °F 65% 29.98 in 10.0 mi South 5.8 mph - N/A   Mostly Cloudy
1:15 PM 77.0 °F 62.6 °F 61% 29.98 in 10.0 mi SSW 5.8 mph - N/A   Scattered Clouds
1:35 PM 77.0 °F 62.6 °F 61% 29.97 in 10.0 mi South 4.6 mph - N/A   Scattered Clouds
1:55 PM 77.0 °F 64.4 °F 65% 29.97 in 10.0 mi SSW 5.8 mph - N/A   Scattered Clouds
2:15 PM 77.0 °F 62.6 °F 61% 29.96 in 10.0 mi South 6.9 mph - N/A   Mostly Cloudy
2:35 PM 75.2 °F 62.6 °F 65% 29.95 in 10.0 mi South 6.9 mph - N/A   Scattered Clouds
2:55 PM 75.2 °F 62.6 °F 65% 29.95 in 10.0 mi SSW 8.1 mph - N/A   Scattered Clouds
3:15 PM 75.2 °F 62.6 °F 65% 29.95 in 10.0 mi SSW 8.1 mph - N/A   Clear
3:35 PM 75.2 °F 62.6 °F 65% 29.95 in 10.0 mi South 6.9 mph - N/A   Clear
3:55 PM 73.4 °F 62.6 °F 69% 29.95 in 10.0 mi SSW 6.9 mph - N/A   Clear
4:15 PM 73.4 °F 64.4 °F 73% 29.95 in 10.0 mi South 5.8 mph - N/A   Clear
4:35 PM 71.6 °F 64.4 °F 78% 29.94 in 10.0 mi South 5.8 mph - N/A   Clear
4:55 PM 71.6 °F 64.4 °F 78% 29.95 in 10.0 mi SSW 4.6 mph - N/A   Clear
5:15 PM 69.8 °F 64.4 °F 83% 29.94 in 10.0 mi South 5.8 mph - N/A   Clear
5:35 PM 69.8 °F 66.2 °F 88% 29.94 in 10.0 mi South 5.8 mph - N/A   Clear
5:55 PM 68.0 °F 66.2 °F 94% 29.94 in 10.0 mi South 4.6 mph - N/A   Clear
6:15 PM 68.0 °F 68.0 °F 100% 29.95 in 10.0 mi South 5.8 mph - N/A   Clear
6:35 PM 68.0 °F 68.0 °F 100% 29.95 in 10.0 mi South 5.8 mph - N/A   Clear
6:55 PM 69.8 °F 68.0 °F 94% 29.94 in 10.0 mi South 4.6 mph - N/A   Clear
7:15 PM 69.8 °F 68.0 °F 94% 29.93 in 10.0 mi South 4.6 mph - N/A   Unknown
7:35 PM 68.0 °F 68.0 °F 100% 29.95 in 10.0 mi SSW 4.6 mph - N/A   Unknown
7:55 PM 69.8 °F 68.0 °F 94% 29.96 in 10.0 mi SW 5.8 mph - N/A   Unknown
8:15 PM 69.8 °F 68.0 °F 94% 29.95 in 10.0 mi SW 3.5 mph - N/A   Unknown
8:35 PM 69.8 °F 68.0 °F 94% 29.95 in 10.0 mi SW 3.5 mph - N/A Rain Light Rain
8:55 PM 69.8 °F 69.8 °F 100% 29.95 in 10.0 mi SSW 9.2 mph - N/A   Scattered Clouds
9:15 PM 69.8 °F 69.8 °F 100% 29.96 in 10.0 mi SW 6.9 mph - N/A   Unknown
9:35 PM 69.8 °F 69.8 °F 100% 29.95 in 10.0 mi SSW 11.5 mph 17.3 mph N/A   Drizzle
9:55 PM 69.8 °F 69.8 °F 100% 29.96 in 10.0 mi West 8.1 mph - N/A   Unknown
10:15 PM 68.0 °F 68.0 °F 100% 29.95 in 10.0 mi Calm Calm - N/A   Unknown
10:35 PM 68.0 °F 68.0 °F 100% 29.95 in 10.0 mi West 4.6 mph - N/A   Clear
10:55 PM 68.0 °F 68.0 °F 100% 29.96 in 10.0 mi WNW 8.1 mph - N/A   Clear
11:15 PM 66.2 °F 64.4 °F 94% 29.95 in 10.0 mi West 6.9 mph - N/A   Clear
11:35 PM 64.4 °F 64.4 °F 100% 29.94 in 10.0 mi West 5.8 mph - N/A   Clear
11:55 PM 64.4 °F 64.4 °F 100% 29.94 in 10.0 mi West 3.5 mph - N/A   Clear